Wind_Speed
10 10 8 7 6 6 6 5 4 3 2 1 1 2 1 3 2 2 4 5 6 7 4 7 9 9 11 11 10 10 12 14 13 13 13 14 14 12 11 12 12 10 8 8 7 6 6 6 6 7 8 9 10 11 12 12 11 10 10 9 9 8 8 8 8 9 9 9 9 9 9 9 9 8 9 9 9 9 8 9 10 10 11 11 10
11 10 8 6 5 5 4 3 2 1 2 1 1 1 0 3 2 2 3 4 5 7 7 8 9 9 8 9 10 11 13 14 13 14 15 15 15 13 12 10 10 11 9 8 7 7 7 7 6 5 7 8 8 9 11 11 10 10 9 8 8 8 8 8 7 8 8 8 8 8 8 8 7 8 9 9 8 8 8 8 9 10 11 9 8
12 10 8 6 6 5 4 3 3 2 1 2 1 0 1 3 2 1 2 3 5 7 8 8 10 9 6 7 12 13 14 15 14 15 15 15 15 14 13 10 9 10 8 8 8 8 8 8 6 3 5 8 7 7 8 9 9 9 9 8 7 7 7 7 7 7 7 7 7 7 7 7 7 7 8 8 7 8 8 8 8 9 10 8 6
11 10 8 7 6 6 6 5 4 4 2 2 2 2 3 4 3 3 3 3 4 6 7 8 8 8 5 7 15 15 14 15 14 14 13 14 15 14 14 12 11 10 8 7 8 7 7 8 6 4 5 8 7 6 7 7 8 8 7 7 7 6 6 6 6 6 6 7 7 7 7 6 6 6 6 7 7 7 7 7 8 8 8 8 7
11 10 9 8 7 8 8 7 6 5 4 3 3 4 5 6 5 4 5 5 5 6 6 7 9 7 7 9 14 15 13 13 13 12 12 12 13 14 14 13 12 11 9 8 7 7 7 7 7 6 5 6 6 7 6 5 6 8 8 7 7 7 6 6 5 5 5 6 6 6 6 6 6 6 5 5 5 5 6 6 6 7 7 7 7
11 11 10 9 8 8 9 9 7 6 5 5 6 7 7 7 6 6 6 7 7 6 5 6 8 8 9 10 12 14 14 13 12 12 11 11 12 13 13 12 12 11 10 9 8 8 7 6 8 6 5 5 5 6 5 4 4 6 8 8 8 8 7 6 5 5 4 4 4 5 5 5 5 5 5 5 5 4 4 4 4 5 5 6 6
11 10 9 8 8 7 8 8 7 7 7 6 7 8 9 7 7 6 8 10 9 8 6 8 10 10 10 11 11 14 15 13 12 11 11 12 12 12 12 12 12 12 11 10 9 9 8 7 8 8 7 6 4 4 2 3 3 3 4 5 7 8 8 7 7 5 4 3 3 4 4 4 3 3 3 3 4 4 4 4 4 4 4 4 5
10 9 8 8 7 7 9 9 8 8 8 7 7 9 10 9 7 6 8 11 11 10 8 9 12 12 12 11 11 13 15 13 12 12 13 13 12 12 12 12 11 12 13 12 10 9 8 8 9 9 8 7 5 4 3 0 1 1 1 1 2 5 6 7 7 7 7 6 6 6 6 5 4 2 1 2 2 2 3 4 4 3 4 3 4
9 9 8 8 8 8 10 10 9 9 8 7 8 9 10 9 8 7 8 11 12 12 11 11 13 13 13 12 11 12 14 14 13 13 13 12 12 11 11 11 11 11 13 13 11 9 7 7 9 9 9 8 7 6 5 4 3 4 3 2 1 1 2 3 4 6 6 6 6 6 6 6 6 6 4 3 2 1 1 1 2 2 3 3 3
8 8 7 7 7 7 8 9 8 8 7 7 8 9 9 9 9 10 9 11 13 13 12 12 13 14 13 12 11 12 14 14 14 14 13 13 12 11 9 10 11 11 12 13 11 9 7 7 8 8 8 7 6 4 3 2 2 2 2 1 1 2 1 1 1 1 2 3 4 5 5 5 5 6 6 5 5 4 2 2 2 1 1 2 2
8 7 7 6 6 6 7 7 8 8 7 7 9 9 9 9 9 10 10 11 12 13 13 14 14 14 14 12 11 11 12 13 14 14 13 13 12 12 11 11 11 11 11 11 10 9 8 8 7 6 6 5 4 2 1 1 1 2 1 1 1 2 2 3 3 4 3 2 1 2 3 4 4 5 5 5 6 5 3 4 4 3 2 1 1
8 7 7 5 5 6 7 7 8 9 8 8 9 8 9 8 8 9 11 12 13 14 15 16 17 16 14 12 10 9 10 10 12 13 12 11 11 11 12 12 10 10 10 10 9 9 8 8 7 5 5 4 3 2 1 1 1 1 2 2 1 0 0 1 2 4 5 5 4 4 4 3 3 3 4 4 5 5 4 4 4 4 3 3 2
7 7 6 5 5 6 7 7 8 9 8 8 7 6 7 7 8 9 11 13 15 15 18 20 19 15 11 10 8 7 7 7 9 10 9 10 10 9 10 11 10 8 8 8 8 8 8 7 6 5 3 3 3 2 1 1 0 1 2 1 2 2 2 1 1 3 4 4 4 5 6 6 6 4 4 4 4 4 5 5 5 4 4 5 4
5 7 6 5 5 5 5 6 7 7 7 7 6 5 7 8 10 11 11 13 15 17 20 17 13 13 11 8 5 4 5 5 6 7 6 7 9 8 9 10 10 7 6 7 7 6 7 8 8 7 6 5 5 4 3 2 2 2 2 0 0 2 3 3 2 3 3 2 2 4 4 5 6 6 6 6 6 6 5 6 5 4 4 5 5
4 5 5 4 5 5 5 5 5 6 7 8 7 7 8 9 10 11 12 13 14 18 18 11 13 16 13 6 2 2 3 4 4 5 4 4 6 7 7 7 8 7 6 6 6 4 4 7 8 8 7 6 5 4 4 4 4 4 3 3 2 3 4 4 3 4 4 3 3 3 3 3 4 5 6 8 8 9 9 7 7 6 5 5 5
4 4 3 3 4 4 5 5 5 5 6 7 8 8 8 9 10 10 12 13 15 16 12 11 19 17 8 3 2 2 1 2 4 3 2 2 4 5 5 5 5 5 5 4 4 6 7 8 8 8 7 5 4 5 6 6 6 6 5 5 5 6 7 6 4 4 4 4 5 5 5 4 4 4 5 6 6 8 9 9 9 9 8 6 5
7 6 5 4 4 4 4 4 5 5 6 6 6 7 7 8 9 10 11 12 14 14 10 13 20 14 7 6 3 0 2 4 5 4 3 3 3 4 5 7 6 6 7 7 8 10 10 10 9 7 6 4 4 5 6 7 8 9 10 9 9 9 10 10 9 8 8 8 8 7 7 5 4 4 4 4 5 6 6 7 8 10 11 9 8
8 8 8 6 4 4 3 3 4 5 5 5 5 6 7 8 9 9 10 10 12 14 13 14 15 11 9 9 3 4 7 7 4 2 4 6 5 5 6 7 8 9 11 11 11 11 10 9 8 7 5 4 4 6 8 9 10 11 12 11 11 10 10 11 11 11 11 10 9 9 10 10 10 10 9 8 6 4 4 5 6 7 9 11 12
8 8 8 7 5 4 3 2 3 4 4 4 4 4 6 8 10 9 9 9 11 14 16 16 14 9 8 7 4 8 15 13 6 4 4 5 6 8 7 7 9 12 13 13 12 11 10 9 8 7 6 6 7 8 10 11 12 13 13 12 11 10 10 9 9 10 11 11 11 11 12 13 13 13 14 14 12 10 7 4 4 5 5 8 9
7 7 7 6 5 5 4 3 2 3 4 3 3 3 5 7 9 9 9 9 10 12 16 18 16 11 8 8 7 13 18 14 12 12 7 3 5 6 8 9 11 13 13 13 13 12 11 10 9 9 9 9 9 10 11 12 13 13 13 12 12 11 11 10 10 10 11 12 13 13 13 13 13 13 13 14 14 13 13 11 9 6 3 3 5
7 7 6 6 6 6 5 2 2 4 5 4 4 4 5 6 9 9 9 10 10 11 14 18 18 14 12 12 14 17 16 12 15 16 10 6 4 2 6 9 9 11 13 14 15 13 12 11 11 10 9 10 10 10 11 11 12 12 12 11 11 11 10 11 11 11 11 12 13 12 12 12 12 12 12 13 13 13 13 13 12 11 9 7 6
8 8 7 7 7 8 5 3 5 7 6 5 5 6 7 8 9 10 10 10 10 10 12 16 17 15 14 16 19 19 13 9 13 15 11 8 5 5 9 10 9 10 14 17 16 13 12 11 10 10 9 9 9 9 9 10 10 11 10 10 10 10 10 10 10 10 10 11 11 11 10 10 10 10 10 11 11 11 12 12 12 12 11 10 10
10 9 8 8 7 8 8 7 8 8 5 5 5 6 8 9 10 10 11 10 10 10 11 14 16 15 15 17 21 22 18 14 16 18 14 9 8 7 9 14 14 15 18 19 17 15 13 11 10 10 9 9 9 8 9 10 10 10 10 10 11 11 11 12 12 12 13 13 13 12 12 11 11 11 10 10 10 10 9 9 9 9 9 10 10
11 9 9 8 7 8 10 11 10 9 6 4 4 5 7 9 9 10 11 11 11 11 11 14 16 16 16 17 20 21 21 22 23 21 20 20 17 10 10 16 14 14 21 21 17 16 13 10 10 10 10 9 10 10 10 11 11 12 12 13 14 14 14 15 16 16 17 17 17 16 15 15 14 14 13 13 12 12 11 10 9 8 8 8 8
10 9 8 7 8 9 10 10 10 10 8 6 4 6 7 8 8 9 10 10 11 10 11 12 13 15 16 17 19 16 18 25 25 22 24 26 22 13 12 15 13 14 18 18 16 14 11 9 8 9 10 10 11 12 12 13 13 14 15 15 16 16 17 18 18 19 20 20 19 19 18 17 16 16 15 15 14 14 13 12 11 10 9 8 8
9 8 8 8 9 10 9 9 10 10 10 7 6 6 7 7 7 8 8 8 8 8 9 10 10 13 15 17 18 15 17 24 24 25 28 26 23 19 14 11 14 16 13 13 15 11 9 9 7 8 8 9 11 11 12 13 14 15 15 15 16 17 17 18 19 19 20 20 20 20 20 19 18 16 16 16 16 15 15 14 14 13 12 11 10
9 9 9 9 10 10 10 9 9 10 10 8 7 8 7 8 7 8 8 8 7 7 8 9 9 11 13 16 18 15 18 23 24 26 28 26 26 27 21 11 8 8 8 10 11 9 11 11 7 6 7 8 9 10 10 11 12 13 14 14 15 15 16 17 17 17 18 19 19 19 20 21 20 17 16 17 17 16 16 16 15 15 14 13 13
12 11 10 11 11 10 9 9 9 10 11 9 8 8 8 9 9 10 10 9 9 8 8 8 8 9 10 13 16 16 17 21 23 24 25 27 29 30 29 21 10 4 4 5 4 5 11 12 7 5 6 7 9 8 8 9 11 11 12 12 14 14 14 14 15 15 16 17 18 18 19 20 21 19 18 18 18 18 18 17 17 16 15 15 15
13 13 12 12 12 11 10 9 9 11 12 10 8 9 10 11 11 11 11 9 8 8 7 7 7 7 8 9 13 17 18 20 21 21 23 26 27 27 27 27 21 10 3 3 3 6 10 9 7 7 7 8 9 8 8 8 9 10 10 10 10 11 12 12 12 12 13 14 15 17 17 18 19 19 19 19 20 20 20 19 19 17 16 17 17
14 13 12 13 12 11 11 10 11 13 13 11 10 10 12 13 13 12 10 9 8 7 6 7 7 7 7 8 11 14 18 19 19 18 20 22 24 23 21 23 27 20 11 6 4 7 13 11 8 9 11 11 9 9 8 6 7 8 8 8 7 7 8 9 10 9 10 11 12 15 16 15 16 17 18 19 21 22 22 21 20 18 17 17 19
13 12 13 13 12 11 12 12 13 14 13 11 11 12 12 13 13 12 11 10 10 9 9 10 10 10 10 9 11 13 16 18 17 16 18 20 22 21 20 21 24 24 23 16 5 8 16 13 10 11 13 12 10 8 8 7 7 7 6 5 5 4 5 6 8 8 8 8 10 12 14 13 13 14 15 16 18 20 22 22 20 18 18 17 19
12 12 13 13 12 12 14 14 13 13 12 11 12 12 13 13 13 13 11 11 12 13 14 15 15 14 14 13 14 16 18 18 16 15 16 20 23 22 21 23 22 21 25 20 9 9 15 14 12 13 12 11 10 8 6 6 6 6 5 3 2 1 2 4 6 7 6 7 9 11 12 11 10 11 12 13 14 16 20 22 19 18 17 16 16
12 13 12 12 12 13 15 13 12 12 12 11 11 12 14 14 14 13 12 13 15 17 17 16 16 16 17 18 19 20 22 21 20 18 15 16 21 25 25 24 22 21 22 20 14 12 13 13 14 13 12 11 10 8 6 4 4 4 3 2 1 1 1 2 4 5 5 7 9 11 12 11 9 9 9 11 11 14 19 21 19 16 16 15 14
12 12 11 11 13 14 14 13 12 11 11 11 11 12 14 14 14 13 13 15 16 17 17 16 16 16 17 19 20 20 21 22 20 18 15 13 14 20 26 26 24 22 22 19 17 15 12 14 16 14 13 12 11 9 8 5 3 3 3 3 2 1 1 2 3 6 7 8 9 10 10 9 8 7 9 10 11 16 21 19 17 15 14 13 12
13 12 11 11 12 12 12 14 14 12 11 11 12 13 14 13 14 14 14 15 16 16 16 17 18 18 18 18 18 18 19 19 19 16 14 13 13 16 22 26 24 23 20 17 16 16 16 16 17 16 15 14 12 10 9 7 4 3 3 2 3 5 5 5 5 9 9 9 9 8 8 7 6 5 8 11 16 21 20 15 14 15 13 11 10
15 15 13 12 12 12 12 13 14 13 12 12 12 13 12 12 13 15 17 17 16 17 18 18 18 18 19 18 16 16 17 17 18 17 15 14 15 18 21 23 22 20 18 16 15 17 19 18 17 17 16 14 13 11 11 10 7 3 1 4 7 7 6 5 7 9 8 9 9 8 8 7 6 7 11 16 20 20 16 12 12 14 12 10 9
17 16 14 14 13 13 13 12 12 13 12 11 11 12 12 12 13 15 17 17 16 17 17 16 17 18 18 17 16 16 16 16 17 17 16 16 16 17 18 18 18 17 16 16 16 17 20 21 19 17 17 15 13 12 13 14 9 5 5 7 8 7 5 4 6 7 7 8 9 8 8 8 9 13 17 19 18 15 12 11 13 13 12 11 10
16 16 15 15 15 14 14 12 12 13 12 10 12 13 12 13 15 15 15 16 16 17 17 16 16 16 15 16 16 15 15 16 17 17 17 16 15 15 16 16 17 17 17 17 17 17 19 21 20 18 16 15 14 12 13 14 12 10 10 9 8 6 3 3 5 7 7 8 8 8 9 11 13 16 16 15 13 11 10 11 12 13 13 12 11
13 14 16 16 15 15 15 14 13 14 13 12 13 14 12 13 17 17 15 16 18 18 18 17 16 15 14 15 16 16 16 16 18 18 17 16 16 15 15 16 17 17 18 18 18 18 20 20 19 18 17 14 13 11 11 13 13 12 12 9 7 4 1 4 6 6 5 6 8 10 11 11 12 12 11 10 9 9 10 12 12 12 13 13 12
13 13 16 16 13 15 16 15 15 16 15 13 14 14 13 15 19 19 17 18 19 19 18 18 17 15 15 16 16 17 17 17 18 18 17 18 18 16 17 18 18 18 17 17 17 18 20 20 19 19 17 12 10 10 11 14 15 12 10 8 5 2 3 5 5 5 5 8 10 11 10 9 9 9 8 9 9 9 10 11 10 10 11 11 11
11 12 16 15 12 14 17 17 16 18 16 14 14 16 15 16 19 20 19 18 18 19 19 18 18 17 16 17 18 18 18 17 16 16 16 17 18 18 18 20 19 18 17 16 16 16 18 18 17 18 16 12 12 14 15 15 13 10 8 6 3 2 5 5 4 4 7 11 12 11 9 9 10 10 10 10 11 9 9 9 10 10 11 11 12
12 11 13 13 10 12 16 17 18 20 19 16 16 17 17 18 18 19 21 19 17 19 21 20 19 18 17 17 17 17 17 17 16 15 15 16 17 17 19 20 19 18 18 17 16 16 16 17 15 15 14 13 14 16 16 13 11 9 7 4 1 3 6 6 4 5 9 12 12 11 10 9 9 10 11 12 13 13 12 11 11 12 12 12 13
14 13 12 12 11 11 12 13 14 19 22 20 19 19 19 19 19 20 21 21 18 18 21 22 21 20 19 19 18 17 18 18 17 17 17 17 17 17 19 19 18 18 19 19 18 16 15 15 14 13 13 14 14 15 15 13 10 8 5 1 2 4 7 6 4 5 8 11 12 11 10 9 7 8 9 10 12 14 12 11 11 11 11 11 11
9 11 11 11 12 11 11 11 10 14 19 22 22 22 21 21 20 20 22 22 21 20 21 22 21 21 21 21 21 20 20 20 20 19 19 18 18 17 17 18 18 18 19 19 19 18 17 15 14 13 14 15 16 15 14 12 9 6 2 1 2 3 4 5 5 5 7 8 10 9 9 9 7 6 7 8 11 12 10 9 10 10 10 11 10
2 4 6 8 9 10 10 10 10 10 13 19 21 22 24 24 24 23 23 24 24 24 24 23 23 23 24 23 23 23 23 23 23 22 22 21 20 18 17 17 18 18 18 18 18 18 17 16 15 15 15 16 16 15 12 10 7 3 1 1 1 2 4 6 6 5 5 6 8 7 6 7 7 7 7 9 11 11 9 8 10 11 11 12 12
5 5 5 5 7 9 10 11 11 10 10 13 16 18 21 24 25 26 26 27 27 27 27 26 26 26 26 27 27 26 27 26 26 26 25 24 22 21 19 18 18 18 18 17 17 17 16 16 15 15 14 14 14 14 11 8 4 2 1 0 1 3 4 5 5 3 3 6 9 7 4 6 10 10 11 12 13 12 11 11 12 13 14 15 16
6 6 6 6 8 9 11 12 14 16 15 13 13 14 16 19 22 24 24 26 27 29 29 29 29 28 29 30 31 31 31 29 28 28 28 27 26 23 21 21 20 19 19 18 17 16 14 13 13 12 13 12 11 11 9 5 2 1 1 0 2 4 5 6 5 3 3 7 9 7 5 7 11 13 15 17 17 16 15 14 14 15 16 18 18
6 5 5 5 7 10 11 12 13 16 18 18 17 17 17 18 20 21 22 22 23 25 27 29 29 30 31 32 33 33 33 32 31 30 29 29 28 25 23 22 22 21 20 19 18 15 13 11 10 10 12 13 11 8 6 3 1 1 1 3 5 5 4 4 4 3 5 6 8 9 8 10 12 15 17 18 19 19 15 13 13 15 16 16 15
11 10 10 9 8 9 11 13 14 15 15 16 17 18 18 20 21 22 23 23 23 24 25 25 27 29 32 32 32 30 28 29 31 30 29 30 27 24 23 24 23 21 20 19 18 15 11 11 11 11 12 12 9 6 4 3 2 2 3 5 6 3 3 4 4 5 6 5 6 10 12 11 11 14 16 17 18 15 10 10 14 15 15 15 14
15 14 13 12 11 10 11 12 14 17 18 17 17 17 18 19 21 22 23 25 25 25 25 25 25 27 29 30 33 32 29 30 31 30 29 31 28 25 27 27 24 22 21 19 17 15 12 12 13 13 12 10 7 7 6 5 5 5 4 4 4 2 3 5 4 5 5 4 6 11 13 9 10 13 14 14 14 10 7 11 17 18 17 16 16
17 17 16 15 14 13 13 13 14 15 18 19 20 20 20 20 21 22 23 24 25 26 26 27 27 27 27 28 31 33 32 33 34 31 31 33 31 29 29 28 25 24 23 21 20 18 17 16 15 13 11 10 9 9 8 6 5 4 3 2 2 1 3 5 5 5 4 3 7 12 12 8 9 12 12 11 9 6 8 15 19 19 18 18 18
Wind_Direction
181 182 181 165 147 136 130 126 113 98 62 36 29 18 252 202 117 39 18 25 31 38 72 175 183 188 192 185 166 160 172 172 162 156 154 155 152 149 143 141 149 150 146 146 146 137 117 123 119 98 106 114 118 121 119 117 113 110 109 107 107 103 102 101 102 103 102 102 101 102 106 107 105 104 103 103 100 96 95 98 99 98 93 86 89
191 189 183 169 160 151 146 147 149 154 39 46 127 16 268 184 123 43 34 42 50 59 89 143 163 171 183 191 176 166 174 172 164 159 156 159 157 151 150 148 149 152 155 152 148 144 132 136 137 112 99 101 114 123 119 115 110 107 107 105 107 107 108 106 106 107 105 106 107 106 107 105 103 105 107 105 102 100 92 94 99 97 93 87 88
198 195 186 182 180 177 184 192 202 207 78 67 135 66 128 148 123 123 102 73 70 73 92 124 154 167 163 181 179 169 169 169 165 161 158 162 161 156 156 155 152 155 159 155 153 148 139 140 146 147 103 86 101 125 114 106 104 101 101 99 99 107 113 114 113 111 110 108 107 106 105 104 102 104 111 110 109 108 98 94 96 95 95 86 77
200 198 193 190 185 187 188 181 182 186 168 122 134 129 131 137 134 140 118 99 90 82 94 108 130 158 162 169 171 164 163 165 161 157 159 165 165 162 162 164 163 166 164 156 157 150 143 141 147 173 132 89 86 109 105 95 97 98 96 93 93 102 114 123 122 117 116 112 108 104 100 98 96 100 110 115 114 112 109 105 102 100 102 98 87
198 197 197 192 185 186 178 165 166 169 165 155 152 148 147 146 138 130 116 111 105 90 100 110 112 132 142 153 166 165 164 162 154 151 159 166 167 168 170 172 170 171 168 157 156 152 149 143 143 160 147 106 79 91 105 89 86 89 88 85 86 95 109 122 128 125 121 116 114 107 101 96 90 93 101 109 113 113 115 113 111 108 107 109 104
196 198 199 195 190 186 180 173 171 169 165 159 160 162 162 159 141 129 124 116 110 107 115 120 119 132 141 147 164 168 167 162 151 148 156 164 170 174 175 177 176 174 171 163 158 158 159 149 141 144 139 126 91 96 112 99 98 93 82 77 76 86 96 109 122 126 125 122 120 114 105 102 98 98 100 109 117 121 120 113 113 118 114 114 113
197 204 205 203 198 191 191 186 177 173 171 168 170 170 172 171 152 136 124 117 116 120 127 130 132 144 155 157 161 163 164 162 155 151 156 164 169 171 172 176 179 179 179 174 169 170 171 157 146 144 139 137 128 127 114 81 105 102 70 60 67 78 86 94 97 97 97 90 103 110 99 96 108 117 119 124 124 125 128 121 117 123 128 126 119
202 212 214 214 211 201 197 194 185 179 179 182 185 181 181 179 165 151 128 121 124 124 130 138 136 139 152 159 158 161 166 166 166 160 159 164 161 160 165 169 172 178 183 183 179 176 174 162 155 154 150 151 155 166 191 157 113 145 254 327 62 79 81 86 79 69 65 63 71 80 78 73 69 84 117 142 134 132 133 129 127 126 131 139 133
208 214 216 216 214 204 194 194 189 183 186 189 191 188 188 186 171 158 140 131 133 132 135 137 132 134 142 147 150 160 169 175 175 165 161 162 158 160 165 166 167 171 179 184 183 175 166 158 159 161 160 169 180 180 188 198 200 204 222 260 215 114 60 80 70 57 55 53 57 56 55 51 45 43 44 56 65 59 87 111 122 129 133 141 150
212 217 218 215 214 206 194 192 191 190 194 192 190 189 189 189 172 154 140 137 139 139 141 137 131 135 138 138 143 157 169 176 173 167 170 170 163 164 171 176 174 168 172 181 183 178 169 158 158 165 164 176 194 196 203 221 241 229 238 286 214 224 272 246 266 3 35 42 39 37 35 24 21 27 30 36 34 24 32 34 14 8 133 140 159
209 217 218 221 224 216 202 196 198 199 198 190 186 187 186 183 172 153 136 136 144 147 146 139 129 129 133 135 140 151 165 175 176 177 185 183 171 168 180 187 180 171 171 178 181 179 175 167 163 168 173 185 206 225 246 248 339 9 26 357 239 211 239 243 249 267 269 257 305 343 3 3 359 2 5 16 19 12 22 29 12 0 5 14 211
204 213 217 228 229 220 211 198 198 199 193 188 187 188 185 177 168 157 141 133 141 151 153 146 129 118 123 136 140 144 157 172 181 184 189 193 186 183 188 189 184 179 177 178 183 181 177 173 170 174 183 191 203 223 280 269 263 324 10 12 6 20 284 279 261 269 266 249 253 265 273 303 320 327 330 337 354 359 0 358 353 351 351 354 330
203 205 207 217 211 209 209 198 202 206 196 190 192 188 182 173 161 157 147 135 139 152 157 148 132 116 115 129 132 133 143 159 179 184 183 190 191 182 182 187 190 192 189 185 186 186 181 172 160 153 154 149 144 146 91 43 252 290 291 297 15 28 23 7 332 299 281 264 257 256 257 265 271 279 297 298 305 327 333 328 332 339 337 341 338
196 198 197 196 189 190 193 191 199 203 193 188 187 173 170 168 158 155 150 141 143 154 155 147 136 130 126 117 107 113 119 123 158 176 179 189 187 173 177 189 188 186 194 193 186 187 185 167 150 137 136 134 117 96 72 58 52 37 20 266 22 27 17 6 0 340 314 308 297 276 264 264 276 276 267 264 262 270 285 298 308 317 318 324 329
176 184 184 176 171 173 176 177 181 179 175 173 170 167 169 169 161 160 155 143 144 154 156 149 139 134 126 117 112 118 99 87 127 163 172 189 194 184 189 196 185 180 193 197 185 176 157 144 138 138 140 131 103 66 44 45 45 41 48 67 95 66 39 19 10 4 354 4 3 347 342 319 316 308 277 266 259 255 257 264 280 291 298 301 306
139 133 149 153 151 162 173 181 176 172 174 170 166 168 170 169 166 170 166 150 146 160 170 158 147 141 123 108 112 119 143 112 100 106 125 146 174 179 176 171 168 174 181 171 143 123 116 124 132 141 145 122 79 45 43 57 61 65 74 77 86 85 70 64 65 57 46 45 43 38 32 7 333 328 310 292 276 266 261 257 257 262 271 281 286
118 107 111 120 132 152 168 182 180 177 183 183 174 171 175 176 174 179 183 170 159 167 180 164 157 158 154 138 116 102 188 144 113 81 60 90 133 157 143 137 135 136 134 126 123 122 123 131 139 143 139 112 66 54 69 79 79 80 83 84 89 89 81 76 78 79 74 66 60 56 52 44 25 9 351 321 299 291 284 275 265 255 256 267 274
121 107 103 102 111 126 139 167 179 181 185 187 181 178 182 189 188 187 194 194 178 171 174 171 166 168 168 162 178 213 170 141 124 86 68 77 107 144 136 124 124 127 126 123 126 131 133 135 136 135 127 101 80 82 90 93 90 87 85 86 89 90 85 78 76 76 75 72 66 62 61 60 56 51 45 31 9 348 324 305 297 281 263 267 269
130 117 111 108 101 95 106 142 166 178 183 180 178 182 182 191 198 198 202 207 196 181 176 177 173 168 175 182 218 197 167 151 150 153 111 80 107 136 143 133 130 131 130 131 134 134 135 133 129 127 122 108 102 103 102 97 93 90 87 87 88 87 86 80 76 78 80 75 70 68 66 63 60 55 52 48 45 41 35 19 343 322 284 280 282
124 122 116 117 112 101 104 119 155 170 174 165 166 180 177 188 203 208 212 214 213 201 185 180 178 168 165 172 183 180 169 162 155 144 125 94 108 127 140 141 139 137 135 141 144 139 132 126 119 116 114 111 109 107 102 97 93 91 89 88 87 86 84 81 78 79 80 77 72 69 67 64 61 58 55 52 52 51 49 51 48 40 14 326 328
123 126 120 118 121 121 113 105 162 161 153 152 162 184 191 201 208 210 214 213 220 221 199 187 183 172 158 152 156 164 164 160 150 138 125 129 131 132 145 140 136 142 149 152 152 145 132 117 107 106 105 105 106 104 100 97 93 90 87 85 83 82 80 79 78 76 77 77 73 68 64 62 60 58 56 54 52 52 51 51 52 51 49 40 28
139 145 145 133 123 123 121 127 160 161 158 163 175 194 205 210 208 205 205 206 211 219 209 193 184 177 168 154 150 154 152 145 147 142 130 125 128 149 154 144 129 138 155 160 157 147 129 113 104 102 101 101 101 101 99 95 92 88 85 82 78 77 76 75 75 73 71 70 69 66 58 55 53 51 50 49 47 48 48 48 48 48 48 46 42
145 143 145 146 131 119 121 128 144 159 173 178 181 199 205 200 202 203 200 201 204 209 210 197 185 179 175 165 160 162 163 163 161 153 142 129 131 144 148 141 131 135 149 155 154 144 128 114 104 98 98 101 101 102 99 95 93 88 85 82 79 78 77 76 73 70 67 64 62 61 56 51 48 45 44 43 41 40 40 41 40 39 39 40 39
148 142 136 141 137 125 125 129 139 155 164 157 159 183 195 190 192 198 198 200 201 200 198 194 190 184 180 175 168 167 172 172 165 158 152 147 145 144 140 136 129 135 145 147 146 141 131 116 102 95 92 96 103 106 99 93 90 87 86 84 82 80 78 76 74 70 66 63 60 58 55 51 48 46 44 43 41 39 37 35 32 29 25 23 24
153 153 149 145 145 140 133 131 141 153 154 142 140 163 177 176 177 187 192 197 197 193 191 193 197 194 188 184 177 173 176 173 166 160 155 150 146 142 141 138 132 140 147 146 142 138 132 119 103 94 88 89 102 106 96 90 90 89 88 86 82 80 77 74 72 69 64 60 57 55 52 48 45 44 42 41 41 39 37 35 33 30 26 19 15
157 157 161 155 151 149 141 131 136 150 153 149 149 155 167 172 176 186 189 193 193 189 192 196 200 198 193 190 187 182 174 171 168 161 156 154 152 147 141 132 132 139 146 150 149 144 138 132 114 97 89 87 99 104 96 87 89 93 90 86 83 79 75 72 67 63 58 55 54 51 46 41 37 36 36 35 34 34 33 31 30 29 27 25 21
166 164 165 164 157 151 147 137 135 151 151 146 151 156 168 179 183 185 178 178 184 185 189 192 193 197 197 196 194 186 174 172 172 167 163 163 160 155 147 134 126 133 134 144 151 150 148 147 134 106 95 92 98 102 99 89 90 99 96 87 83 79 75 68 61 55 51 49 48 45 42 37 34 31 30 28 27 26 25 23 23 22 23 24 23
167 166 163 166 166 160 160 149 137 149 152 143 146 154 166 176 175 173 166 164 174 179 180 179 176 180 187 193 195 189 178 174 175 176 175 171 165 160 156 151 148 133 121 131 130 143 152 152 145 130 114 105 101 98 101 99 95 101 104 98 86 79 74 66 58 52 46 44 42 38 36 34 35 34 32 30 27 25 22 20 19 19 21 23 22
168 169 166 164 162 160 166 160 143 147 153 147 143 149 158 163 162 163 161 160 169 173 174 172 169 168 167 173 185 187 183 177 176 179 180 175 168 166 165 162 157 145 122 146 157 164 167 163 151 145 139 124 108 96 100 107 106 102 107 111 96 82 76 66 58 51 43 41 37 33 30 30 34 35 32 31 30 27 23 20 20 21 24 23 20
171 173 173 167 163 163 165 159 150 153 155 151 148 151 153 151 152 155 153 152 157 161 166 163 159 162 155 150 163 174 177 177 179 180 180 180 178 179 181 173 163 158 153 150 170 183 175 172 166 156 151 142 122 102 96 106 123 118 110 114 109 95 83 66 55 47 39 37 34 28 24 23 29 32 30 28 27 25 22 18 17 19 20 20 17
176 178 175 171 171 173 166 155 152 156 159 160 158 159 158 154 153 156 153 153 149 145 144 139 135 139 139 138 148 159 168 176 185 191 192 191 189 191 194 186 175 170 164 154 152 190 180 176 174 165 156 149 141 125 105 105 127 136 130 125 117 108 91 62 46 36 29 30 29 25 18 16 23 30 30 27 23 21 17 13 9 7 8 9 12
181 180 179 179 179 177 168 159 158 160 163 169 166 163 164 163 162 162 160 153 146 142 141 136 131 130 128 128 139 148 153 158 164 176 191 197 199 200 199 194 186 177 170 161 148 174 183 181 174 170 165 160 160 155 132 118 129 140 142 145 148 139 92 51 36 31 30 30 27 21 12 8 17 28 29 22 18 15 10 5 1 357 356 356 1
179 180 184 186 181 176 171 167 167 167 169 174 174 170 168 166 165 164 157 150 145 144 144 142 140 136 128 125 131 137 139 138 138 143 156 176 193 200 201 197 190 182 177 167 149 155 178 185 179 174 174 176 179 179 174 158 144 148 157 169 197 247 32 38 36 37 39 36 31 22 11 2 5 18 20 13 10 5 358 356 354 350 348 346 347
179 184 184 181 175 173 174 174 174 171 173 179 182 178 172 168 168 165 157 151 149 148 149 149 149 148 140 133 133 137 139 139 138 139 141 147 167 188 196 197 190 183 182 174 158 154 165 180 183 181 184 193 197 198 201 195 163 173 215 231 226 207 126 124 71 48 45 44 36 25 16 7 2 7 10 4 358 352 349 348 349 347 344 341 338
179 179 172 168 171 173 177 177 175 175 178 181 181 179 177 175 175 173 166 159 156 157 158 156 156 157 155 149 146 145 143 141 141 144 148 149 148 164 182 188 183 178 183 184 172 161 160 172 184 189 194 204 211 211 212 211 202 218 251 234 181 160 145 129 73 47 44 40 31 23 19 18 15 9 358 349 344 343 345 347 349 350 349 345 338
178 177 171 170 173 174 173 175 178 181 184 183 182 182 183 182 179 177 173 167 166 167 167 164 163 162 161 160 159 159 154 144 142 145 150 152 151 152 163 172 175 176 183 191 187 174 167 171 184 192 198 208 218 219 216 216 216 225 216 149 144 143 133 105 59 42 37 32 28 22 16 16 15 358 344 340 340 341 345 349 349 349 351 351 347
184 184 182 182 185 183 179 179 183 187 189 188 187 188 188 185 181 179 177 176 175 175 173 171 169 166 164 162 162 167 166 155 148 151 154 154 154 155 159 166 173 178 183 189 191 185 177 177 183 191 199 208 217 220 218 215 203 171 148 142 137 132 121 90 52 38 33 27 22 12 4 358 348 341 338 339 341 342 347 353 354 353 356 0 360
193 196 197 194 194 193 188 183 182 188 191 191 191 191 193 193 190 188 188 189 188 186 185 183 178 174 170 162 159 164 169 164 159 160 162 163 163 163 165 169 174 179 183 187 190 189 186 184 187 192 198 207 214 217 217 215 203 177 161 152 143 138 121 60 30 26 23 15 7 355 344 335 330 331 335 342 348 352 358 0 0 359 358 359 3
199 203 203 200 202 201 195 189 186 189 192 196 199 198 197 195 191 191 193 192 189 188 191 194 193 190 184 173 166 165 169 170 170 171 174 173 171 171 173 175 176 179 184 189 193 193 191 189 192 197 202 209 217 216 207 203 195 183 178 172 159 145 68 10 9 16 13 355 345 342 336 328 328 335 345 355 358 356 355 356 359 2 358 356 359
207 206 199 198 205 205 200 197 194 195 198 200 203 202 197 191 189 189 190 188 188 191 195 201 204 204 201 194 185 179 180 182 183 185 188 185 179 176 177 178 178 178 180 186 193 196 196 195 198 205 210 212 207 192 179 177 175 172 179 182 163 115 30 16 11 6 355 341 342 350 350 343 347 360 6 3 356 346 346 353 2 8 4 359 359
205 202 198 200 207 205 202 202 200 200 202 200 199 199 197 194 193 194 194 194 197 200 202 206 210 210 210 207 203 198 195 196 196 196 195 195 193 190 184 182 182 182 181 183 189 190 191 194 200 208 211 198 179 171 165 168 170 164 166 169 141 57 19 18 13 357 349 345 350 4 9 0 4 15 18 14 12 8 4 4 3 0 355 349 345
207 199 200 205 206 205 205 206 206 206 205 202 198 199 202 203 204 204 203 203 205 205 207 208 209 210 211 211 211 210 208 206 205 201 196 197 199 199 196 193 192 193 191 190 191 187 182 182 187 197 198 181 172 174 170 169 173 167 162 160 109 13 358 2 6 358 352 347 351 7 18 15 17 26 33 37 33 21 13 11 5 357 350 345 340
210 205 207 214 215 215 214 214 214 212 210 208 204 204 207 209 210 211 212 212 212 209 209 208 209 211 213 212 213 215 215 213 210 207 205 202 201 201 202 202 204 206 205 201 198 192 186 181 178 185 189 178 172 174 170 165 164 164 162 154 4 353 354 4 14 1 352 346 347 5 27 36 31 28 39 48 35 18 14 17 8 358 356 352 349
205 204 207 215 219 226 232 233 231 221 215 214 212 210 211 211 214 216 216 217 219 218 215 213 214 217 217 216 215 216 218 218 216 216 216 213 211 209 207 208 211 214 214 212 209 203 199 193 184 184 188 180 171 169 170 166 163 162 158 36 359 0 10 21 25 13 2 352 348 2 27 42 42 29 28 35 24 12 11 11 358 349 350 349 348
234 214 208 215 220 225 233 239 241 233 224 220 219 217 215 214 217 220 221 221 223 223 223 222 223 225 224 223 220 219 220 220 220 221 222 221 220 218 216 215 216 218 219 221 222 219 216 209 199 193 192 189 179 173 173 173 171 168 146 70 21 32 30 29 35 35 24 14 4 9 29 32 23 13 3 4 5 358 349 345 342 338 336 336 338
284 273 259 257 251 245 245 247 248 246 237 228 225 224 223 221 222 223 224 225 225 226 226 226 227 227 229 228 226 224 222 220 221 222 223 223 223 223 224 224 223 222 221 222 223 224 223 220 213 202 193 193 189 181 177 177 177 180 176 142 51 53 48 54 73 76 42 23 12 17 41 15 360 355 347 346 349 345 334 328 326 325 325 328 329
284 277 270 272 272 266 261 258 258 257 256 251 243 235 232 231 230 229 228 228 227 228 228 228 229 229 231 233 232 230 226 222 222 222 222 223 224 224 226 225 223 223 221 219 218 216 214 215 213 204 192 188 187 182 175 172 180 244 268 74 87 91 85 88 98 88 24 11 6 19 41 7 351 346 341 337 336 333 327 320 319 321 323 326 327
11 356 331 303 291 284 276 271 269 266 263 263 262 256 248 242 238 237 237 234 232 232 231 230 230 229 231 232 232 231 228 225 224 223 223 225 222 220 224 223 221 221 219 217 216 213 213 214 211 203 190 181 179 177 171 170 195 230 149 116 110 107 97 93 92 52 11 2 6 18 17 356 346 343 337 333 331 330 324 319 323 330 333 336 338
9 6 358 346 330 313 295 283 279 276 273 270 269 267 262 256 251 248 246 243 239 238 237 235 231 230 231 233 234 233 228 226 227 225 225 228 222 218 224 223 217 216 215 215 215 209 205 206 201 189 179 172 171 169 158 148 141 135 137 133 127 113 76 82 79 32 7 356 1 5 358 349 344 342 337 334 334 332 326 330 341 347 349 350 351
351 347 343 337 332 328 319 303 288 282 280 279 276 272 268 266 262 258 255 252 247 243 240 239 237 235 234 236 238 236 231 232 235 231 231 234 227 220 223 219 211 210 208 205 205 196 185 184 178 169 164 159 154 148 141 135 133 135 140 141 146 134 77 80 70 27 13 5 359 358 356 350 345 344 340 336 335 332 323 337 347 350 350 349 349
345 340 336 329 321 316 317 316 307 297 292 289 285 280 275 271 267 263 260 255 252 249 246 243 241 241 240 238 239 239 238 238 239 237 240 242 235 225 221 215 209 209 205 202 199 190 181 179 171 162 157 150 145 143 140 137 139 146 155 150 144 111 81 72 53 34 26 11 1 360 359 353 344 345 346 338 330 323 324 334 342 345 345 346 345
Height
821 821 823 823 823 824 825 826 827 828 829 830 831 831 832 833 833 833 834 834 834 833 832 831 832 833 834 835 836 837 838 839 839 840 842 843 843 844 844 845 846 847 848 848 848 848 848 848 848 849 848 848 847 847 847 847 847 847 848 848 848 848 848 848 848 848 847 847 847 847 847 847 847 847 847 847 847 846 846 845 845 845 845 844 844
820 821 822 823 823 824 825 826 827 829 830 830 831 832 832 833 833 833 834 834 834 834 833 832 833 834 835 836 837 837 838 839 839 840 841 843 843 844 845 846 847 848 848 848 848 849 849 849 849 850 850 849 849 849 848 848 848 848 848 848 849 849 849 849 849 848 848 848 848 848 848 848 848 848 847 847 847 847 847 846 846 845 845 845 845
820 821 822 823 824 825 825 826 828 829 830 831 831 832 832 833 833 833 834 834 834 834 833 833 833 834 835 836 837 838 838 839 839 839 841 843 843 844 845 846 847 848 849 849 849 849 849 850 850 850 850 850 850 850 850 849 849 849 849 849 849 849 849 849 849 849 849 849 848 848 848 848 848 848 848 848 848 848 847 847 847 846 846 846 845
819 821 822 823 824 825 825 826 828 829 830 831 831 832 832 832 833 833 833 833 834 834 834 834 834 835 836 836 837 838 838 839 840 840 841 842 843 844 844 846 847 848 849 850 850 850 850 850 851 851 851 851 851 851 851 851 851 850 850 850 849 850 850 850 850 850 850 850 849 849 849 849 849 849 848 848 848 848 848 848 847 847 847 847 846
819 820 821 823 823 824 825 826 827 828 829 830 831 831 832 832 833 833 833 834 834 834 834 834 835 836 836 836 837 838 839 839 840 840 841 842 843 844 844 845 847 848 849 850 850 850 850 851 851 851 851 852 852 852 852 852 852 852 851 851 850 850 850 850 851 851 851 851 850 850 850 849 849 849 849 849 848 848 848 848 848 848 848 847 847
819 820 821 822 823 824 824 825 827 828 829 829 830 831 831 831 832 833 833 834 834 835 835 835 836 837 837 837 837 838 839 840 840 840 841 842 843 844 845 846 847 848 849 850 850 851 851 851 851 852 852 852 853 852 853 853 853 853 853 852 851 850 850 851 851 852 852 851 851 851 850 850 850 850 850 849 849 849 849 848 848 848 848 848 848
819 820 821 822 822 823 824 825 826 827 828 829 830 830 830 831 831 832 834 834 835 835 836 836 836 837 837 838 838 839 839 840 840 841 841 842 843 844 844 846 847 848 849 850 850 851 851 851 852 852 853 853 853 853 853 854 854 854 853 853 852 852 851 852 852 852 852 852 852 851 851 851 850 850 850 850 849 849 849 849 849 848 848 848 848
819 820 821 821 822 823 823 824 826 827 828 829 830 830 830 830 831 832 833 834 835 835 836 836 836 837 838 839 839 840 840 840 840 841 842 842 843 844 845 846 847 847 848 849 850 851 851 852 852 852 853 853 853 854 854 854 854 854 854 853 853 852 852 852 853 853 853 853 853 852 852 851 851 850 850 850 850 850 850 849 849 849 849 849 848
819 820 821 821 822 822 823 824 825 826 828 829 829 829 829 830 830 832 833 834 835 836 836 836 837 837 838 840 840 840 840 840 841 842 843 844 844 846 846 847 847 848 848 849 850 851 852 852 852 853 853 853 853 853 854 854 854 854 854 853 853 853 852 852 853 853 853 853 853 853 853 852 852 851 850 850 850 850 850 850 849 849 849 849 849
819 820 821 821 822 822 823 823 825 826 827 828 829 829 829 830 830 832 833 834 835 835 836 837 837 838 839 841 841 841 841 841 842 843 843 843 844 847 849 849 848 848 848 849 850 851 851 852 852 853 853 853 853 853 854 854 854 854 854 853 853 853 853 853 852 853 853 854 854 854 853 853 852 852 851 851 851 851 850 850 850 849 849 849 848
819 820 820 821 821 822 822 823 824 826 827 828 828 829 829 830 831 832 833 834 835 835 836 837 838 839 840 841 841 842 842 843 843 843 843 843 844 846 848 849 849 848 849 849 850 851 852 852 852 853 853 852 853 854 854 854 854 854 854 854 853 853 852 852 852 853 853 854 854 854 854 854 853 853 852 852 852 851 851 851 850 850 849 849 849
819 820 820 821 821 822 822 823 824 825 826 827 828 829 829 830 831 832 833 834 835 836 836 837 838 839 840 841 842 843 843 843 843 843 843 844 844 845 846 849 849 849 849 850 850 851 851 852 853 853 853 853 853 854 854 854 855 855 854 854 853 852 852 852 852 853 853 854 854 853 853 854 854 853 853 853 852 852 851 851 851 850 850 849 849
819 820 820 821 821 821 822 823 824 825 826 827 828 828 829 830 831 832 833 834 836 836 837 837 837 839 841 842 843 843 844 844 844 844 844 844 845 846 847 848 849 848 849 850 851 851 852 853 854 854 854 854 854 854 854 854 854 854 854 854 853 853 852 852 852 853 853 853 853 853 853 853 853 853 853 853 853 852 851 851 851 850 850 850 850
819 820 820 821 821 821 822 822 823 824 826 827 828 828 829 830 831 832 834 835 836 837 837 837 837 838 840 842 844 845 845 845 845 844 845 846 846 847 847 847 848 849 849 850 851 852 852 853 854 855 855 855 855 855 855 855 854 854 854 854 854 853 853 853 853 852 852 853 853 853 853 853 853 852 853 853 852 852 851 850 851 851 851 850 850
819 819 820 820 821 821 821 822 823 824 825 827 828 829 829 830 831 832 834 835 837 838 838 838 837 838 840 842 845 846 847 847 846 845 846 847 847 847 847 847 849 850 850 851 852 852 853 854 855 855 855 855 856 856 855 855 855 854 854 854 854 854 853 853 853 853 853 853 853 853 852 852 852 852 852 852 852 851 850 850 851 851 851 850 850
819 819 820 820 820 821 821 822 823 824 825 826 828 828 829 830 831 832 833 835 837 838 838 838 838 838 840 842 844 846 848 847 846 847 847 848 848 847 848 848 849 850 851 852 853 854 855 855 856 856 856 856 857 856 856 855 855 854 854 854 854 854 854 854 854 854 854 854 854 853 853 853 853 853 852 852 851 850 850 850 850 850 850 850 850
820 820 820 821 821 821 821 821 822 824 825 826 827 828 829 830 830 832 833 834 836 837 838 838 839 838 838 840 843 845 846 846 846 847 848 848 848 848 848 849 850 851 852 854 854 855 856 856 856 856 857 857 857 857 856 856 855 855 855 855 855 855 855 855 855 855 855 854 854 854 853 853 853 852 852 851 850 849 849 850 850 850 849 849 849
821 821 822 822 822 822 822 822 822 823 824 825 826 828 829 830 830 831 833 834 835 836 836 837 838 838 837 837 838 839 840 843 846 848 849 849 849 848 848 849 850 852 854 855 855 856 856 857 857 857 857 858 858 857 857 856 856 856 856 856 856 856 856 856 856 856 855 855 855 854 854 853 853 852 851 850 850 849 849 849 849 849 849 849 848
821 822 823 823 823 823 822 823 823 823 824 825 826 827 828 829 830 831 832 833 834 835 835 836 836 837 837 836 836 835 836 839 843 845 848 850 850 850 850 850 851 853 855 855 855 856 857 857 858 858 858 858 858 858 858 857 857 857 857 857 857 857 857 857 857 857 856 856 855 855 854 854 854 853 852 851 850 849 849 849 849 849 849 849 848
821 822 823 823 823 823 823 823 823 824 824 824 825 827 828 829 830 831 832 832 833 834 834 834 835 835 836 836 836 836 837 838 839 841 844 849 851 851 851 852 853 855 855 856 857 857 858 858 859 859 859 859 859 859 859 858 858 858 858 858 858 858 858 858 858 858 857 857 856 856 856 855 855 854 853 852 851 850 850 850 849 849 848 848 848
821 822 823 824 824 824 824 824 823 824 824 825 826 827 828 829 830 831 831 832 832 833 833 834 834 835 836 836 836 837 838 839 840 840 841 846 850 852 852 853 855 856 857 857 858 859 859 860 860 860 860 860 860 860 859 859 859 859 859 859 859 859 860 859 859 859 858 858 857 857 857 856 856 855 854 853 852 851 851 850 850 849 848 848 848
820 822 823 824 824 824 824 824 823 824 824 825 826 827 828 829 830 830 831 832 832 832 833 834 835 835 836 836 836 837 838 839 840 841 842 844 848 851 852 853 855 857 858 859 860 860 861 861 861 861 861 861 861 861 860 860 860 860 860 860 860 860 860 860 860 860 859 859 858 858 858 857 856 856 855 854 853 852 852 851 850 850 849 849 848
820 822 823 824 825 825 824 823 824 824 825 826 827 827 828 829 830 830 831 831 831 832 833 834 835 836 836 837 836 836 836 837 839 840 842 844 847 850 852 853 855 857 859 860 861 861 861 861 861 861 861 861 861 861 861 861 861 861 861 861 861 861 861 861 861 860 860 860 859 859 859 858 857 856 856 855 854 853 853 852 851 851 850 850 849
821 822 823 824 824 825 824 824 824 825 826 827 827 827 828 829 829 830 831 831 831 831 832 833 834 836 837 837 837 837 837 837 838 840 841 843 846 849 852 854 856 858 860 861 862 862 862 862 862 861 861 861 862 862 862 862 862 862 862 863 863 863 863 862 862 862 861 861 861 860 860 859 858 858 857 856 855 854 853 853 852 851 851 850 850
821 821 822 823 824 824 824 824 825 826 827 827 827 827 828 828 829 831 831 831 831 831 831 832 833 834 836 838 838 839 839 839 840 841 842 844 846 848 852 853 855 858 860 861 861 862 863 862 862 862 862 862 862 863 863 863 863 863 864 864 864 864 864 864 864 863 863 862 862 862 861 861 860 859 858 857 856 855 855 854 853 852 851 851 850
821 822 822 823 824 824 825 825 825 826 827 827 827 827 828 828 829 830 831 831 831 831 831 831 832 833 835 837 838 840 840 840 841 842 843 845 846 847 851 853 856 858 859 860 860 861 863 863 863 862 862 863 863 863 864 864 864 864 865 865 865 865 865 865 865 864 864 864 863 863 862 862 861 860 859 858 858 857 856 855 854 853 852 851 850
821 822 823 824 824 825 825 826 826 826 827 827 828 828 828 829 829 830 831 831 831 831 831 831 831 832 834 836 838 840 841 841 842 843 844 844 845 846 848 852 856 858 859 860 860 861 861 862 863 863 863 863 863 864 864 865 865 865 865 866 866 866 866 866 866 866 865 865 865 864 863 862 862 861 860 859 858 858 857 856 855 854 853 852 851
822 822 823 824 824 825 826 826 826 827 827 828 828 829 829 829 830 830 831 831 831 832 832 832 832 832 833 835 837 840 842 842 843 844 845 845 845 846 846 848 852 856 859 860 861 861 861 861 862 863 863 864 864 864 865 865 866 866 866 867 867 867 867 867 867 867 866 866 865 865 864 863 862 862 861 860 859 858 857 856 855 854 853 852 852
822 823 823 824 824 825 826 827 827 827 828 828 829 829 829 830 830 831 832 832 832 832 832 833 833 833 834 835 836 839 841 843 844 845 845 846 847 847 848 847 848 852 857 860 860 860 861 861 861 862 863 864 864 865 865 866 866 867 867 867 868 868 868 868 868 867 867 866 866 865 865 864 863 863 862 861 860 859 858 857 856 855 854 853 852
823 823 824 824 824 825 826 827 827 828 828 829 829 830 830 831 831 832 832 832 832 832 833 833 833 834 834 835 836 838 840 842 844 846 847 848 848 849 850 850 849 849 853 857 859 859 859 860 860 861 862 863 864 864 865 865 866 867 867 867 868 868 868 868 868 868 867 867 866 866 865 865 864 864 863 862 861 860 859 858 857 856 855 854 853
823 824 824 824 825 825 826 827 827 828 829 829 830 830 830 831 831 832 833 833 833 833 833 833 834 834 835 836 837 837 839 842 844 846 847 848 849 850 851 851 850 849 849 853 856 858 858 859 860 861 861 862 863 864 864 865 865 866 867 867 867 868 868 868 868 868 867 867 867 866 866 865 865 864 864 863 862 861 860 859 858 857 856 855 854
824 824 825 825 825 825 826 827 828 828 829 830 830 830 831 831 832 832 833 833 833 833 834 834 835 835 836 836 837 837 839 841 843 845 847 848 849 850 851 851 851 851 850 851 854 856 857 859 859 860 861 862 863 863 864 865 865 866 866 867 867 867 868 868 868 868 867 867 867 866 866 866 865 865 864 864 863 862 861 859 858 857 856 855 854
826 826 826 826 826 826 826 827 828 828 829 830 830 831 831 832 833 833 834 834 834 835 835 835 836 836 837 837 838 839 840 841 843 844 845 846 847 848 849 850 852 852 852 853 854 855 857 859 860 861 861 862 863 863 864 864 865 865 866 866 867 867 867 868 868 867 867 866 866 866 866 866 866 865 865 864 863 862 861 859 858 857 856 855 854
826 827 827 827 827 827 827 827 828 829 829 830 830 831 831 832 833 834 835 835 835 836 836 836 836 837 838 838 839 840 841 841 842 844 845 845 846 847 847 849 851 852 852 853 855 856 857 859 860 861 861 862 862 863 863 864 864 865 865 866 866 866 867 867 867 867 866 866 866 866 865 865 865 865 864 864 863 862 860 859 857 856 855 854 853
827 827 828 828 828 828 828 828 828 829 829 830 830 831 832 832 833 834 836 836 836 836 836 837 837 837 838 839 840 841 841 841 842 843 844 845 846 846 847 849 850 852 853 854 854 855 857 858 860 860 861 861 862 862 863 863 864 865 865 865 865 866 867 867 867 866 866 866 865 865 865 865 864 864 864 863 862 860 859 858 857 855 854 853 853
826 827 828 828 829 829 829 829 829 829 829 830 831 832 832 833 834 834 835 836 837 837 837 837 837 838 838 839 840 840 841 841 842 843 844 845 845 846 847 849 851 852 853 854 854 854 856 857 859 859 860 860 860 861 862 863 864 864 865 865 865 866 866 867 867 866 866 865 865 865 865 864 864 863 863 862 860 859 858 857 856 854 853 852 852
826 827 828 828 829 829 829 829 829 829 830 831 831 832 833 833 834 835 835 836 837 837 838 838 839 839 839 840 840 841 841 841 842 843 844 845 846 846 847 849 850 851 852 853 853 853 854 855 857 858 859 859 860 860 861 862 863 864 864 865 865 866 866 866 866 866 865 865 864 864 864 864 863 862 861 860 859 858 857 856 855 854 853 852 851
827 827 828 828 828 829 830 830 830 831 831 832 833 833 834 834 834 835 836 837 837 838 839 839 840 840 840 841 841 841 841 842 843 844 845 846 846 847 848 849 850 851 851 852 852 853 853 854 855 856 857 858 859 859 860 860 862 862 863 864 865 865 866 866 866 865 865 864 864 864 864 863 862 861 860 859 858 857 856 855 854 853 852 852 851
827 827 827 828 828 829 830 830 831 831 832 833 834 834 834 834 835 836 836 837 838 839 839 840 840 841 841 841 841 842 842 843 844 845 846 846 847 847 848 849 849 850 851 852 852 852 853 854 854 855 856 857 857 858 858 859 860 861 862 863 864 864 865 865 864 864 864 864 864 864 863 862 861 860 860 859 857 856 855 854 853 852 852 851 850
827 827 828 828 828 829 829 830 831 832 832 833 834 835 835 835 835 836 836 837 838 839 840 840 841 841 842 842 842 842 843 844 844 845 845 846 846 847 848 849 849 850 850 851 851 852 852 853 853 854 855 855 856 856 857 858 859 860 861 862 862 863 863 864 864 864 864 864 863 863 862 861 860 859 858 857 856 855 854 853 852 851 850 850 849
828 828 828 828 828 828 829 829 831 831 832 833 834 835 836 836 836 836 836 837 838 838 839 840 840 841 841 842 842 843 843 844 844 844 845 846 846 847 848 849 849 849 850 850 851 851 851 852 852 853 854 854 855 855 856 857 858 859 860 861 861 862 863 863 863 863 863 863 862 862 861 860 859 858 857 856 855 854 853 852 851 851 850 849 848
827 827 828 829 828 829 829 829 830 831 832 833 833 834 835 836 836 836 837 837 838 838 838 839 839 840 841 842 842 843 843 844 844 845 845 845 846 846 847 848 848 848 849 849 850 850 850 851 851 852 852 853 854 855 855 856 857 857 858 859 860 861 861 862 862 863 862 861 861 861 860 859 858 857 856 855 855 853 852 851 851 850 849 848 847
827 827 828 828 828 829 829 829 830 830 831 832 833 834 834 835 836 836 837 837 837 838 838 838 838 839 840 841 841 842 842 843 843 843 844 844 845 846 846 847 847 848 848 848 848 849 849 849 850 850 851 851 853 853 854 855 856 857 857 858 858 859 860 861 861 861 860 860 859 859 859 858 857 857 856 855 855 853 852 852 851 850 849 848 846
826 826 827 827 828 828 829 829 829 830 830 831 831 832 833 834 834 835 836 837 837 837 837 838 838 838 838 839 840 840 840 841 841 842 842 843 843 844 845 846 846 847 847 847 847 847 848 848 849 849 849 850 851 852 853 854 855 856 856 857 858 858 859 859 860 860 859 859 858 858 857 857 857 857 856 856 855 853 852 852 851 850 848 847 846
826 827 827 827 828 828 829 829 829 829 830 830 831 831 832 832 833 833 834 835 835 836 836 837 837 837 838 838 838 839 839 839 839 840 840 840 841 842 843 844 845 845 846 847 847 847 847 847 847 848 848 849 850 851 852 853 854 855 856 857 857 857 858 858 858 859 858 858 858 857 857 857 857 856 856 856 855 853 852 851 850 849 848 846 845
826 827 827 827 827 828 828 829 829 829 830 830 830 831 831 831 831 831 832 832 833 833 834 835 835 836 836 837 836 837 837 837 837 837 838 838 839 839 840 841 843 843 844 845 845 846 846 846 846 846 847 848 849 850 851 852 853 855 855 856 856 856 857 857 858 858 858 857 857 856 856 856 856 856 855 855 855 853 852 851 850 848 847 845 844
827 827 826 826 827 827 827 828 828 828 828 829 830 830 830 830 830 830 830 830 830 830 831 832 833 834 834 834 834 834 834 834 835 835 835 836 836 837 838 839 840 841 842 843 843 844 844 845 845 845 846 847 849 849 851 852 853 854 854 854 854 855 856 857 857 857 857 856 856 855 856 856 855 855 855 854 853 853 851 849 848 847 845 844 843
826 825 825 825 826 826 826 826 826 826 826 827 828 828 829 829 829 828 828 828 828 828 828 829 830 831 832 832 832 832 832 833 833 833 833 833 833 835 836 837 837 838 839 841 842 842 843 844 844 844 845 846 848 849 850 850 851 852 852 852 853 854 855 856 856 856 855 855 854 854 855 855 854 854 853 853 852 851 849 848 847 846 845 843 842
823 823 823 823 823 824 824 825 825 825 825 825 826 826 826 827 827 826 826 826 825 826 826 826 827 828 828 829 830 832 834 834 833 832 832 831 831 833 835 835 835 836 837 838 840 841 842 843 843 843 844 846 847 848 849 849 850 850 850 851 852 853 854 854 854 855 854 854 854 853 854 854 853 853 852 851 850 849 848 847 847 845 844 842 841
822 822 822 822 822 822 822 823 823 823 823 823 824 824 824 824 824 824 824 823 823 823 823 824 825 825 826 827 827 829 832 833 831 830 829 828 828 830 832 831 832 833 834 835 837 838 840 842 842 842 844 845 846 847 848 848 849 849 850 850 851 852 852 852 853 853 853 853 853 852 852 853 852 852 851 850 848 847 847 846 845 844 842 841 839
822 822 822 821 821 821 821 821 821 821 820 820 820 821 821 822 821 821 821 821 820 820 821 821 822 822 823 824 824 824 826 827 827 827 827 825 824 825 827 828 829 830 831 832 834 835 837 841 842 842 843 844 845 846 847 847 847 848 849 849 850 850 851 851 852 852 852 852 852 851 851 852 852 851 850 848 847 845 845 844 843 841 840 839 837